AUA2860 EPKK-LOWW

Flight info

Callsign AUA2860
Flight time 0h 34m
Altitude 24000
Route BABKO DCT VADEX DCT BABNI DCT TUTPI P182 REKLU REKLU3W
Aircraft A320/M-SDE3FGHIRWY/LB1

Departure

Time 2026-05-06 15:48
Airport Kraków John Paul II International Airport (EPKK)

Arrival

Time 2026-05-06 16:23
Airport Vienna International Airport (LOWW)
Time Latitude Longitude Altitude Speed Heading
2026-05-06 15:48 49.78073 19.61417 14535 ft 336 kts 211°
2026-05-06 15:48 49.76023 19.59648 15237 ft 338 kts 210°
2026-05-06 15:49 49.73961 19.57874 15945 ft 340 kts 210°
2026-05-06 15:49 49.71889 19.56096 16608 ft 342 kts 210°
2026-05-06 15:49 49.69802 19.54307 17278 ft 344 kts 210°
2026-05-06 15:49 49.67698 19.52512 17931 ft 346 kts 210°
2026-05-06 15:50 49.65581 19.50712 18531 ft 349 kts 210°
2026-05-06 15:50 49.63480 19.48921 19064 ft 351 kts 210°
2026-05-06 15:50 49.61395 19.46928 19590 ft 354 kts 218°
2026-05-06 15:50 49.59574 19.44363 20114 ft 357 kts 226°
2026-05-06 15:51 49.57869 19.41566 20632 ft 360 kts 226°
2026-05-06 15:51 49.56146 19.38747 21151 ft 363 kts 226°
2026-05-06 15:51 49.54408 19.35906 21640 ft 366 kts 226°
2026-05-06 15:51 49.52654 19.33044 22090 ft 369 kts 226°
2026-05-06 15:52 49.50885 19.30161 22596 ft 372 kts 226°
2026-05-06 15:52 49.49100 19.27252 23084 ft 375 kts 226°
2026-05-06 15:52 49.47297 19.24324 23543 ft 378 kts 226°
2026-05-06 15:52 49.45485 19.21380 23800 ft 380 kts 226°
2026-05-06 15:53 49.43676 19.18440 23863 ft 374 kts 226°
2026-05-06 15:53 49.41903 19.15567 23871 ft 369 kts 226°
2026-05-06 15:53 49.40143 19.12721 23873 ft 367 kts 226°
2026-05-06 15:53 49.38390 19.09885 23873 ft 367 kts 226°
2026-05-06 15:54 49.36632 19.07045 23876 ft 367 kts 226°
2026-05-06 15:54 49.34969 19.04364 23876 ft 366 kts 226°
2026-05-06 15:54 49.33342 19.01737 23876 ft 367 kts 226°
2026-05-06 15:54 49.31673 18.99052 23864 ft 367 kts 226°
2026-05-06 15:55 49.29901 18.96204 23862 ft 368 kts 226°
2026-05-06 15:55 49.28137 18.93376 23864 ft 368 kts 226°
2026-05-06 15:55 49.26368 18.90543 23861 ft 368 kts 226°
2026-05-06 15:55 49.24684 18.87595 23859 ft 368 kts 233°
2026-05-06 15:56 49.23228 18.84367 23861 ft 369 kts 235°
2026-05-06 15:56 49.21780 18.81131 23856 ft 369 kts 235°
2026-05-06 15:56 49.20329 18.77893 23855 ft 369 kts 235°
2026-05-06 15:56 49.18883 18.74671 23855 ft 369 kts 235°
2026-05-06 15:57 49.17429 18.71434 23850 ft 369 kts 234°
2026-05-06 15:57 49.15978 18.68211 23845 ft 368 kts 234°
2026-05-06 15:57 49.14516 18.64974 23844 ft 369 kts 234°
2026-05-06 15:57 49.13078 18.61801 23840 ft 368 kts 234°
2026-05-06 15:58 49.11600 18.58543 23845 ft 368 kts 234°
2026-05-06 15:58 49.10162 18.55368 23850 ft 368 kts 235°
2026-05-06 15:58 49.08708 18.52153 23847 ft 368 kts 235°
2026-05-06 15:58 49.07254 18.48943 23845 ft 368 kts 234°
2026-05-06 15:59 49.05798 18.45737 23841 ft 368 kts 234°
2026-05-06 15:59 49.04340 18.42534 23842 ft 368 kts 234°
2026-05-06 15:59 49.02881 18.39334 23843 ft 367 kts 234°
2026-05-06 15:59 49.01422 18.36138 23845 ft 367 kts 234°
2026-05-06 16:00 48.99961 18.32949 23840 ft 367 kts 234°
2026-05-06 16:00 48.98499 18.29765 23855 ft 366 kts 234°
2026-05-06 16:00 48.97044 18.26579 23858 ft 366 kts 236°
2026-05-06 16:00 48.95852 18.23168 23852 ft 366 kts 246°
2026-05-06 16:01 48.94857 18.19602 23849 ft 366 kts 246°
2026-05-06 16:01 48.93855 18.16035 23848 ft 366 kts 246°
2026-05-06 16:01 48.92850 18.12485 23847 ft 366 kts 246°
2026-05-06 16:01 48.91859 18.08986 23849 ft 365 kts 245°
2026-05-06 16:02 48.90837 18.05388 23847 ft 365 kts 245°
2026-05-06 16:02 48.89828 18.01843 23847 ft 365 kts 245°
2026-05-06 16:02 48.88819 17.98306 23846 ft 365 kts 245°
2026-05-06 16:02 48.87808 17.94768 23837 ft 365 kts 245°
2026-05-06 16:03 48.86796 17.91231 23835 ft 365 kts 245°
2026-05-06 16:03 48.85784 17.87703 23833 ft 364 kts 245°
2026-05-06 16:03 48.84771 17.84177 23832 ft 364 kts 245°
2026-05-06 16:03 48.83759 17.80655 23822 ft 364 kts 245°
2026-05-06 16:04 48.82763 17.77179 23817 ft 364 kts 245°
2026-05-06 16:04 48.81739 17.73609 23821 ft 364 kts 245°
2026-05-06 16:04 48.80742 17.70138 23815 ft 363 kts 245°
2026-05-06 16:04 48.79732 17.66633 23660 ft 363 kts 245°
2026-05-06 16:05 48.78718 17.63127 23061 ft 361 kts 245°
2026-05-06 16:05 48.77716 17.59667 22606 ft 355 kts 245°
2026-05-06 16:05 48.76728 17.56262 22162 ft 350 kts 245°
2026-05-06 16:05 48.75753 17.52909 21730 ft 345 kts 245°
2026-05-06 16:06 48.74791 17.49603 21300 ft 341 kts 245°
2026-05-06 16:06 48.73838 17.46332 20878 ft 338 kts 245°
2026-05-06 16:06 48.72893 17.43089 20455 ft 335 kts 245°
2026-05-06 16:06 48.72052 17.39821 20012 ft 333 kts 252°
2026-05-06 16:07 48.71661 17.36364 19559 ft 335 kts 264°
2026-05-06 16:07 48.71694 17.32828 19085 ft 336 kts 268°
2026-05-06 16:07 48.71766 17.29300 18607 ft 335 kts 268°
2026-05-06 16:07 48.71646 17.25798 18142 ft 331 kts 257°
2026-05-06 16:08 48.71014 17.22470 17655 ft 327 kts 245°
2026-05-06 16:08 48.69932 17.19477 17216 ft 322 kts 235°
2026-05-06 16:08 48.68707 17.16657 16798 ft 320 kts 235°
2026-05-06 16:08 48.67492 17.13853 16376 ft 317 kts 236°
2026-05-06 16:09 48.66285 17.11065 15954 ft 316 kts 235°
2026-05-06 16:09 48.65083 17.08298 15535 ft 314 kts 235°
2026-05-06 16:09 48.63887 17.05550 15128 ft 313 kts 235°
2026-05-06 16:09 48.62691 17.02811 14714 ft 311 kts 235°
2026-05-06 16:10 48.61498 17.00082 14302 ft 311 kts 234°
2026-05-06 16:10 48.60309 16.97362 13893 ft 310 kts 234°
2026-05-06 16:10 48.59233 16.94536 13443 ft 312 kts 244°
2026-05-06 16:10 48.58642 16.91373 12985 ft 315 kts 258°
2026-05-06 16:11 48.58457 16.88070 12539 ft 316 kts 262°
2026-05-06 16:11 48.58292 16.84771 12083 ft 314 kts 262°
2026-05-06 16:11 48.58123 16.81521 11630 ft 313 kts 262°
2026-05-06 16:11 48.57950 16.78249 11180 ft 312 kts 262°
2026-05-06 16:12 48.57775 16.74987 10721 ft 311 kts 262°
2026-05-06 16:12 48.57456 16.71779 10267 ft 307 kts 250°
2026-05-06 16:12 48.56558 16.68904 9954 ft 298 kts 234°
2026-05-06 16:12 48.55206 16.66643 9826 ft 285 kts 219°
2026-05-06 16:13 48.53637 16.64906 9702 ft 275 kts 216°
2026-05-06 16:13 48.52063 16.63207 9187 ft 278 kts 216°
2026-05-06 16:13 48.50520 16.61542 8790 ft 268 kts 216°
2026-05-06 16:13 48.49005 16.59914 8097 ft 267 kts 216°
2026-05-06 16:14 48.47493 16.58293 7443 ft 265 kts 216°
2026-05-06 16:14 48.46003 16.56690 6791 ft 262 kts 216°
2026-05-06 16:14 48.44539 16.55113 6341 ft 252 kts 215°
2026-05-06 16:14 48.43163 16.53636 6162 ft 233 kts 215°
2026-05-06 16:15 48.41877 16.52257 6042 ft 221 kts 215°
2026-05-06 16:15 48.40648 16.50942 5945 ft 213 kts 215°
2026-05-06 16:15 48.39852 16.50089 5882 ft 212 kts 215°
2026-05-06 16:15 48.38653 16.48806 5786 ft 211 kts 214°
2026-05-06 16:16 48.36869 16.47694 5623 ft 213 kts 189°
2026-05-06 16:16 48.35380 16.47852 5280 ft 218 kts 168°
2026-05-06 16:16 48.33928 16.48472 4987 ft 215 kts 167°
2026-05-06 16:16 48.32962 16.48891 4802 ft 213 kts 167°
2026-05-06 16:17 48.31543 16.49500 4524 ft 211 kts 167°
2026-05-06 16:17 48.30172 16.50086 4236 ft 201 kts 167°
2026-05-06 16:17 48.28869 16.50643 3977 ft 189 kts 167°
2026-05-06 16:17 48.27664 16.51157 3746 ft 172 kts 168°
2026-05-06 16:18 48.26570 16.51624 3517 ft 155 kts 168°
2026-05-06 16:18 48.25594 16.52040 3332 ft 139 kts 169°
2026-05-06 16:18 48.24690 16.52423 3149 ft 133 kts 169°
2026-05-06 16:18 48.23808 16.52797 2980 ft 130 kts 170°
2026-05-06 16:19 48.22946 16.53162 2803 ft 129 kts 170°
2026-05-06 16:19 48.22076 16.53531 2633 ft 129 kts 169°
2026-05-06 16:19 48.21212 16.53898 2462 ft 129 kts 169°
2026-05-06 16:19 48.20352 16.54265 2293 ft 128 kts 169°
2026-05-06 16:20 48.19493 16.54628 2131 ft 128 kts 169°
2026-05-06 16:20 48.18638 16.54993 1983 ft 128 kts 168°
2026-05-06 16:20 48.17784 16.55354 1817 ft 128 kts 168°
2026-05-06 16:20 48.16933 16.55712 1640 ft 127 kts 168°
2026-05-06 16:21 48.16080 16.56076 1450 ft 131 kts 169°
2026-05-06 16:21 48.15211 16.56448 1289 ft 128 kts 168°
2026-05-06 16:21 48.14351 16.56804 1138 ft 128 kts 168°
2026-05-06 16:21 48.13496 16.57171 949 ft 127 kts 168°
2026-05-06 16:22 48.12688 16.57507 809 ft 125 kts 170°
2026-05-06 16:23 48.10672 16.58279 616 ft 20 kts 190°
2026-05-06 16:23 48.10547 16.58233 610 ft 18 kts 195°
2026-05-06 16:23 48.10468 16.58121 613 ft 17 kts 257°
2026-05-06 16:23 48.10539 16.58003 618 ft 18 kts 343°
2026-05-06 16:24 48.10664 16.57944 617 ft 20 kts 340°
2026-05-06 16:24 48.10809 16.57885 615 ft 24 kts 347°
2026-05-06 16:24 48.10977 16.57819 618 ft 26 kts 343°
2026-05-06 16:24 48.11131 16.57743 622 ft 17 kts 330°
2026-05-06 16:25 48.11192 16.57605 620 ft 17 kts 295°
2026-05-06 16:25 48.11248 16.57432 620 ft 19 kts 295°
2026-05-06 16:25 48.11310 16.57245 623 ft 22 kts 297°
2026-05-06 16:25 48.11374 16.57044 625 ft 17 kts 297°
2026-05-06 16:26 48.11425 16.56892 621 ft 14 kts 295°
2026-05-06 16:26 48.11442 16.56839 623 ft 6 kts 296°
2026-05-06 16:26 48.11466 16.56767 619 ft 9 kts 296°
2026-05-06 16:26 48.11500 16.56658 613 ft 14 kts 295°
2026-05-06 16:27 48.11547 16.56504 618 ft 19 kts 292°
2026-05-06 16:27 48.11612 16.56316 615 ft 21 kts 298°
2026-05-06 16:27 48.11681 16.56103 627 ft 24 kts 297°
2026-05-06 16:27 48.11736 16.55946 625 ft 14 kts 298°
2026-05-06 16:28 48.11802 16.55838 611 ft 16 kts 355°
2026-05-06 16:28 48.11887 16.55915 603 ft 14 kts 80°
2026-05-06 16:28 48.11846 16.56012 619 ft 0 kts 128°